www.pogodaiklimat.ru

Погода и климат >> Архив погоды >> Австрия >> Фельдкирхен


ПОГОДА в Фельдкирхене

  • Прогноз погоды в Фельдкирхене
  • Монитор погоды в Фельдкирхене

АРХИВ ПОГОДЫ в Фельдкирхене

Время (UTC), дата Ветер
(напр.,м/с)
 
Видим.   Явления Облачность Т
(С)
Тd
(С)
f
(%)
Тe
(С)
Тes
(С)
Комфортность P
(гПа)
Po
(гПа)
Тmin
(С)
Tmax
(С)
R
(мм)
R24
(мм)
S
(см)
01 12.08 СВ 1 н/о н/о +18.0 +16.5 91 +19 +19 1014.5 952.3
02 12.08 штиль 0 н/о н/о +17.6 +16.3 92 +18 +18 1014.2 952.0
03 12.08 штиль 0 н/о н/о +17.1 +15.7 91 +17 +17 1014.4 952.0
04 12.08 штиль 0 н/о н/о +16.7 +15.6 93 +17 +17 1014.6 952.1
05 12.08 СВ 1 н/о н/о +17.1 +15.8 92 +18 +18 1014.8 952.4
06 12.08 ЮВ 1 н/о н/о +18.5 +16.2 86 +20 +20 1014.4 952.3 +16.6 +26.2
07 12.08 ЮВ 1 н/о н/о +21.2 +17.4 79 +25 +25 комфорт 1013.7 952.3
08 12.08 штиль 0 н/о н/о +24.6 +18.4 68 +29 +29 душно 1012.8 952.1
09 12.08 Ю 1 н/о н/о +26.2 +18.4 62 +31 +31 очень
душно
1012.2 951.9
10 12.08 ЮВ 1 н/о н/о +27.0 +18.5 60 +32 +32 очень
душно
1011.7 951.6
11 12.08 ЮВ 3 н/о н/о +29.1 +17.8 51 +34 +34 очень
душно
1010.6 950.9
12 12.08 В 2 н/о н/о +30.2 +17.5 47 +34 +34 очень
душно
1010.0 950.5
13 12.08 ЮВ 3 н/о н/о +31.2 +17.3 43 +35 +35 очень
душно
1009.2 950.0
14 12.08 ЮЗ 2 н/о н/о +31.4 +16.0 40 +34 +34 душно 1009.3 950.1
15 12.08 ЮЗ 4 н/о н/о +32.1 +13.0 31 +33 +33 жарко 1008.6 949.5
16 12.08 ЮЗ 2 н/о н/о +30.9 +14.2 36 +33 +33 душно 1007.9 948.6 0.0
17 12.08 ЮЗ 1 н/о н/о +30.2 +14.5 38 +32 +32 жарко 1007.6 948.2
18 12.08 штиль 0 н/о н/о +27.2 +17.7 56 +31 +31 душно 1008.4 948.5 +18.3 +32.9 0.0
19 12.08 С 1 н/о н/о +25.3 +16.6 59 +29 +29 душно 1009.5 949.1
20 12.08 СЗ 4 н/о н/о +26.9 +12.9 42 +29 +29 жарко 1010.7 950.5
21 12.08 З 5 н/о н/о +27.1 +11.2 37 +28 +28 жарко 1011.4 951.1
22 12.08 СЗ 4
{14}
н/о н/о +24.1 +13.5 52 +26 +26 жарко 1012.1 951.2 0.0
23 12.08 С 1 н/о н/о +22.7 +14.1 58 +26 +26 жарко 1011.8 950.7 0.0
00 13.08 СЗ 1
{14}
н/о н/о +21.7 +14.6 64 +25 +25 комфорт 1012.0 950.7 0.0
01 13.08 С 1 н/о н/о +20.7 +15.1 70 +25 +25 комфорт 1011.9 950.4
02 13.08 СЗ 1 н/о н/о +20.1 +15.0 72 +24 +24 комфорт 1011.9 950.3
03 13.08 С 1 н/о н/о +19.4 +15.0 76 +22 +22 комфорт 1012.0 950.2
04 13.08 штиль 0 н/о н/о +18.7 +14.6 77 +19 +19 1012.4 950.5
05 13.08 ЮВ 1 н/о н/о +18.3 +14.9 81 +20 +20 1013.3 951.2
06 13.08 Ю 1
{14}
н/о н/о +20.3 +14.7 70 +24 +24 комфорт 1013.2 951.5 +18.1 +27.7 0.0
07 13.08 ЮВ 3 н/о н/о +22.2 +14.9 63 +26 +26 душно 1013.3 952.0
08 13.08 В 1 н/о н/о +22.6 +14.5 60 +26 +26 жарко 1013.5 952.3
09 13.08 ЮВ 2 н/о н/о +22.8 +14.6 60 +26 +26 жарко 1013.7 952.5
10 13.08 С 3 н/о н/о +23.7 +11.8 47 +25 +25 комфорт 1013.5 952.4
11 13.08 В 2 н/о н/о +23.3 +11.7 48 +26 +26 жарко 1013.5 952.4
12 13.08 ЮВ 4 н/о н/о +22.4 +15.3 64 +26 +26 жарко 1013.9 952.6
13 13.08 ЮВ 4 н/о н/о +21.0 +15.3 70 +24 +24 комфорт 1013.9 952.4
14 13.08 ЮВ 4 н/о н/о +20.5 +15.4 73 +23 +23 комфорт 1014.1 952.4 0.0
15 13.08 ЮВ 4 н/о н/о +20.2 +15.0 72 +23 +23 комфорт 1014.0 952.3 0.0
16 13.08 ЮВ 3 н/о н/о +20.0 +13.2 65 +22 +22 комфорт 1014.1 952.3 0.0
17 13.08 В 2 н/о н/о +19.3 +12.6 65 +21 +21 комфорт 1014.0 952.0 0.0
18 13.08 ЮВ 1 н/о ливневой дождь н/о +18.5 +12.9 70 +20 +20 1014.5 952.4 +18.5 +24.3 0.0
19 13.08 С 4 н/о в посл. час осадки н/о +18.3 +12.0 67 +18 +18 1014.6 952.4 0.0
20 13.08 С 3 н/о осадки н/о +15.9 +13.8 87 +15 +15 1015.1 952.4 3
21 13.08 С 2 н/о в посл. час осадки {ливн. осадки} н/о +16.2 +12.8 80 +16 +16 1015.1 952.4 4
22 13.08 СЗ 2 н/о осадки н/о +15.7 +12.8 83 +16 +16 1015.9 953.1 0.3
23 13.08 штиль 0 н/о ливневой дождь н/о +15.4 +12.1 81 +15 +15 1015.6 952.7 0.2
00 14.08 штиль 0 н/о в посл. час осадки {ливн. осадки} н/о +14.9 +12.7 87 +15 +15 1015.4 952.4 4
01 14.08 Ю 1 н/о н/о +14.7 +12.3 86 +15 +15 1016.2 953.1
02 14.08 ЮВ 1 н/о н/о +14.5 +12.9 90 +15 +15 1016.7 953.6 0.0
03 14.08 СЗ 1 н/о осадки н/о +14.3 +12.9 91 +15 +15 1016.8 953.6 0.1
04 14.08 С 1 н/о осадки н/о +14.1 +12.8 92 +14 +14 1016.9 953.7 0.9
05 14.08 С 1 н/о осадки н/о +13.4 +12.1 92 +14 +14 1017.5 954.1 0.1
06 14.08 С 2 н/о {ливн. осадки} н/о +13.4 +12.0 91 +13 +13 1017.9 954.5 +13.3 +18.7 5
07 14.08 С 1 н/о н/о +14.3 +12.4 88 +15 +15 1017.5 954.3
08 14.08 ЮЗ 1 н/о н/о +15.5 +12.0 80 +16 +16 1017.4 954.4
09 14.08 ЮЗ 1 н/о н/о +17.5 +11.8 69 +19 +19 1016.9 954.4
10 14.08 ЮЗ 1 н/о н/о +19.0 +11.0 60 +21 +21 комфорт 1016.4 954.2
11 14.08 ЮЗ 2 н/о н/о +20.9 +10.8 52 +23 +23 комфорт 1015.6 953.8
12 14.08 Ю 2 н/о н/о +19.8 +10.4 55 +22 +22 комфорт 1016.0 954.0
13 14.08 ЮВ 2 н/о н/о +20.6 +10.6 53 +23 +23 комфорт 1015.3 953.5
14 14.08 ЮВ 1 н/о н/о +20.8 +9.7 49 +24 +24 комфорт 1015.3 953.5
15 14.08 Ю 1 н/о н/о +22.4 +9.5 44 +24 +24 комфорт 1014.7 953.3
16 14.08 ЮВ 3 н/о н/о +20.7 +10.9 53 +23 +23 комфорт 1015.1 953.3
17 14.08 ЮВ 3 н/о н/о +20.1 +10.1 53 +22 +22 комфорт 1015.3 953.4
18 14.08 штиль 0 н/о н/о +19.0 +10.9 59 +20 +20 1015.9 953.7 +13.4 +22.8
19 14.08 С 2 н/о н/о +16.1 +11.7 75 +16 +16 1017.3 954.5
20 14.08 С 2 н/о н/о +14.8 +10.9 77 +15 +15 1018.4 955.2
21 14.08 С 2 н/о н/о +13.9 +9.8 76 +13 +13 1018.9 955.5
22 14.08 С 1 н/о н/о +13.3 +9.5 78 +14 +14 1019.3 955.7
23 14.08 С 1 н/о н/о +12.6 +8.7 77 +13 +13 1019.6 955.8
00 15.08 штиль 0 н/о н/о +11.5 +8.7 83 +11 +11 1019.6 955.6
01 15.08 С 1 н/о н/о +10.8 +8.0 83 +11 +11 1019.9 955.7
02 15.08 С 1 н/о н/о +10.0 +7.4 84 +10 +10 1019.9 955.5
03 15.08 ЮВ 1 н/о н/о +9.4 +7.5 88 +9 +9 1019.9 955.4
04 15.08 штиль 0 н/о н/о +8.9 +7.3 90 +8 +8 1020.0 955.4
05 15.08 штиль 0 н/о н/о +8.9 +7.1 88 +8 +8 1020.2 955.5
06 15.08 С 1 н/о н/о +10.7 +7.5 81 +10 +10 1019.6 955.4 +8.7 +19.4
07 15.08 ЮВ 1 н/о н/о +13.3 +7.7 69 +14 +14 1018.7 955.1
08 15.08 ЮВ 1 н/о н/о +16.7 +9.1 61 +18 +18 1017.5 954.7
09 15.08 СВ 2 н/о н/о +18.8 +10.4 58 +20 +20 1016.5 954.2
10 15.08 Ю 2 н/о н/о +19.9 +10.1 53 +22 +22 комфорт 1015.4 953.4
11 15.08 В 1 н/о н/о +22.2 +11.4 50 +24 +24 комфорт 1014.1 952.7
12 15.08 В 2 н/о н/о +23.0 +10.9 46 +25 +25 комфорт 1013.2 952.0
13 15.08 ЮВ 2 н/о н/о +23.8 +10.1 42 +25 +25 комфорт 1012.4 951.4
14 15.08 ЮВ 2 н/о н/о +24.3 +10.7 42 +25 +25 комфорт 1011.9 951.0
15 15.08 ЮВ 2 н/о н/о +25.2 +10.1 39 +26 +26 жарко 1011.4 950.7
16 15.08 ЮВ 1 н/о н/о +24.0 +10.0 41 +25 +25 комфорт 1011.4 950.5
17 15.08 В 1 н/о н/о +23.0 +10.7 46 +25 +25 комфорт 1011.8 950.7
18 15.08 ЮЗ 3 н/о в посл. час осадки н/о +19.5 +12.8 65 +21 +21 комфорт 1013.1 951.2 +10.3 +25.4 0.0
19 15.08 З 1 н/о н/о +17.9 +13.3 74 +19 +19 1014.2 952.0
20 15.08 С 4 н/о осадки н/о +17.5 +13.4 77 +17 +17 1015.8 953.4 0.1
21 15.08 С 1 н/о осадки н/о +16.2 +13.3 83 +17 +17 1016.8 954.0 0.5
22 15.08 Ю 1 н/о в посл. час осадки н/о +15.4 +13.9 91 +16 +16 1017.4 954.5 1
23 15.08 З 1 н/о в посл. час осадки н/о +15.0 +14.0 94 +15 +15 1017.6 954.6 0.0
00 16.08 С 1 н/о {ливн. осадки} н/о +14.7 +13.6 93 +15 +15 1017.6 954.5 2
01 16.08 штиль 0 н/о н/о +14.7 +13.7 94 +14 +14 1017.8 954.7
02 16.08 В 1 н/о н/о +14.2 +13.2 94 +14 +14 1017.4 954.2
03 16.08 В 1 н/о н/о +14.1 +13.2 94 +14 +14 1017.4 954.2
04 16.08 СВ 1 н/о н/о +14.0 +12.9 93 +14 +14 1017.8 954.5
05 16.08 С 1 н/о н/о +13.7 +12.6 93 +14 +14 1018.3 954.9
06 16.08 З 1 н/о н/о +14.3 +12.2 87 +15 +15 1018.6 955.3 +13.6 +20.2 2
07 16.08 Ю 1 н/о н/о +15.4 +12.8 84 +16 +16 1018.5 955.5
08 16.08 штиль 0 н/о н/о +17.6 +13.6 77 +18 +18 1018.2 955.7
09 16.08 ЮВ 1 н/о н/о +19.6 +14.2 71 +22 +22 комфорт 1017.6 955.5
10 16.08 В 2 н/о н/о +20.8 +12.6 59 +24 +24 комфорт 1016.9 955.1
11 16.08 ЮВ 1 н/о н/о +21.7 +10.4 49 +23 +23 комфорт 1016.6 954.9
12 16.08 ЮВ 1 н/о н/о +22.0 +12.1 53 +24 +24 комфорт 1015.9 954.4 0.0
13 16.08 Ю 2 н/о н/о +22.6 +10.6 47 +25 +25 комфорт 1015.4 954.0
14 16.08 В 2 н/о в посл. час осадки н/о +23.4 +10.7 45 +26 +26 жарко 1014.9 953.7 0.1
15 16.08 В 3 н/о {осадки} н/о +23.3 +10.6 45 +25 +25 комфорт 1014.6 953.4 0.1
16 16.08 СВ 2 н/о н/о +23.1 +10.6 45 +25 +25 комфорт 1014.6 953.3
17 16.08 ЮВ 1 н/о н/о +22.4 +10.6 47 +24 +24 комфорт 1014.6 953.2
18 16.08 ЮВ 1 н/о {осадки} н/о +20.9 +11.4 55 +24 +24 комфорт 1015.4 953.7 +14.1 +23.7 0.1
19 16.08 С 2 н/о н/о +17.8 +12.5 71 +18 +18 1016.9 954.5
20 16.08 С 1 н/о н/о +16.1 +12.1 77 +17 +17 1018.1 955.2
21 16.08 С 2 н/о н/о +15.1 +11.7 80 +15 +15 1018.4 955.3
22 16.08 С 1 н/о н/о +14.4 +11.3 82 +15 +15 1018.8 955.5
23 16.08 С 1 н/о н/о +13.6 +11.1 85 +14 +14 1018.8 955.3
00 17.08 СВ 1 н/о н/о +13.0 +10.8 86 +13 +13 1019.0 955.4
01 17.08 В 1 н/о н/о +12.5 +10.5 88 +12 +12 1018.9 955.2
02 17.08 С 1 н/о н/о +11.8 +10.2 90 +12 +12 1018.6 954.7
03 17.08 С 1 н/о н/о +11.4 +9.9 90 +11 +11 1018.4 954.5
04 17.08 штиль 0 н/о н/о +10.8 +9.3 90 +10 +10 1019.0 954.9
05 17.08 штиль 0 н/о н/о +11.1 +9.5 90 +10 +10 1019.2 955.1
06 17.08 СВ 1 н/о н/о +13.0 +10.3 84 +13 +13 1018.8 955.2 +10.7 +21.1
07 17.08 СЗ 1 н/о н/о +14.8 +11.5 81 +15 +15 1018.4 955.2
08 17.08 Ю 1 н/о н/о +16.8 +12.1 74 +18 +18 1017.6 954.9
09 17.08 ЮВ 1 н/о н/о +20.1 +12.8 63 +23 +23 комфорт 1016.7 954.7
10 17.08 ЮВ 1 н/о н/о +21.9 +13.3 58 +25 +25 комфорт 1015.9 954.4
11 17.08 В 1 н/о н/о +22.7 +13.5 56 +26 +26 жарко 1014.8 953.5
12 17.08 В 2 н/о н/о +25.0 +14.6 52 +28 +28 жарко 1013.7 952.9
13 17.08 В 2 н/о н/о +26.2 +13.1 44 +28 +28 жарко 1012.8 952.3
14 17.08 ЮВ 2 н/о н/о +27.7 +13.7 42 +30 +30 жарко 1012.1 951.9
15 17.08 ЮВ 3 н/о н/о +27.6 +13.5 42 +29 +29 жарко 1011.5 951.4
16 17.08 ЮВ 3 н/о н/о +26.7 +13.3 44 +29 +29 жарко 1011.6 951.3
17 17.08 ЮВ 1 н/о н/о +25.3 +14.9 53 +28 +28 жарко 1012.0 951.4
18 17.08 ЮВ 1 н/о н/о +24.0 +16.4 62 +27 +27 жарко 1012.3 951.5 +12.6 +28.1
19 17.08 С 2 н/о н/о +22.2 +16.5 70 +26 +26 душно 1013.4 952.2
20 17.08 С 1 н/о н/о +20.9 +16.3 75 +26 +26 душно 1013.7 952.2
21 17.08 С 1 н/о н/о +20.1 +15.9 77 +24 +24 комфорт 1013.9 952.2
22 17.08 С 1 н/о н/о +18.7 +15.4 81 +21 +21 комфорт 1014.4 952.4
23 17.08 С 1 н/о н/о +17.7 +15.0 84 +19 +19 1014.9 952.6
00 18.08 штиль 0 н/о н/о +17.0 +14.8 87 +17 +17 1015.2 952.7
01 18.08 С 1 н/о н/о +17.0 +14.4 85 +18 +18 1015.4 952.9
02 18.08 штиль 0 н/о н/о +17.0 +14.6 86 +17 +17 1015.2 952.7
03 18.08 штиль 0 н/о н/о +16.9 +14.5 86 +17 +17 1014.9 952.4
04 18.08 штиль 0 н/о н/о +15.9 +14.3 90 +16 +16 1015.3 952.6
05 18.08 штиль 0 н/о н/о +15.7 +14.0 90 +15 +15 1015.5 952.7
06 18.08 С 1 н/о н/о +16.6 +14.1 85 +17 +17 1015.6 953.0 +15.4 +24.5
07 18.08 штиль 0 н/о н/о +19.2 +14.5 74 +20 +20 1014.7 952.7
08 18.08 штиль 0 н/о н/о +22.6 +14.4 60 +26 +26 жарко 1014.2 952.9
09 18.08 ЮВ 1 н/о н/о +24.4 +14.8 55 +27 +27 жарко 1013.2 952.4
10 18.08 СВ 1 н/о н/о +26.5 +14.4 47 +29 +29 жарко 1012.6 952.2
11 18.08 ЮВ 2 н/о н/о +27.5 +15.8 49 +31 +31 душно 1012.0 951.9
12 18.08 В 2 н/о н/о +28.9 +14.9 43 +31 +31 жарко 1011.2 951.4
13 18.08 ЮВ 1 н/о н/о +30.2 +14.4 38 +32 +32 жарко 1010.6 951.0
14 18.08 Ю 2 н/о н/о +31.1 +14.3 36 +33 +33 душно 1010.2 950.8
15 18.08 Ю 3 н/о н/о +30.7 +16.1 41 +34 +34 очень
душно
1009.9 950.5
16 18.08 Ю 3 н/о н/о +29.5 +16.1 44 +33 +33 душно 1010.1 950.5
17 18.08 Ю 3 н/о н/о +28.4 +15.7 46 +31 +31 душно 1010.6 950.7
18 18.08 Ю 3 н/о н/о +26.7 +15.2 49 +29 +29 жарко 1010.9 950.7 +16.3 +31.3
19 18.08 ЮЗ 4 н/о н/о +24.9 +14.4 52 +27 +27 жарко 1011.7 951.0
20 18.08 СЗ 1 н/о н/о +22.9 +15.0 61 +27 +27 душно 1012.6 951.5
21 18.08 С 1 н/о н/о +21.1 +15.1 69 +24 +24 комфорт 1013.4 951.9
22 18.08 СВ 1 н/о н/о +19.3 +14.7 75 +22 +22 комфорт 1014.1 952.2
23 18.08 С 2 н/о н/о +18.0 +14.3 79 +19 +19 1014.4 952.2
00 19.08 С 2 н/о н/о +17.3 +14.0 81 +18 +18 1014.6 952.2
01 19.08 СВ 1 н/о н/о +16.5 +13.7 84 +17 +17 1014.9 952.3

 

Местоположение метеостанции Фельдкирхен (Австрия): широта 46.72 долгота 14.10 высота над уровнем моря 543 м.

В архиве по умолчанию представлена погода в Фельдкирхене за последнюю неделю. Архивные данные за месяц целиком и за предыдущие месяцы, начиная с января 2011 года, Вы можете получить, выбрав интересующий диапазон дат из раскрывающегося списка и нажав кнопку "Ввод!".


*Определитесь, кто Вы:
робот инопланетянин человек

Внимание! Время в таблицах - всемирное. Для получения местного времени необходимо прибавить поправку, которая равна 1 ч.

Смотрите также архив погоды в соседних городах и на ближайших метеорологических станциях:

Погода в Пёрчах-ам-Вёртерзе (Австрия) (11 км)
Погода в Вайтенсфельд-им-Гурктале (Австрия) (16 км)
Погода в Арриахе (Австрия) (19 км)
Погода в Клагенфурте (Австрия) (19 км)
Погода в Клагенфурте (Австрия) (20 км)
Погода в Филлахе (Австрия) (20 км)
Погода на Добраче (Австрия) (35 км)
Погода на Добраче АМС (Австрия) (35 км)
Погода в Ратеце (Словения) (38 км)
Погода в Лесце (Словения) (39 км)

Пояснения к столбцам:

Ветер - указаны скорость ветра в м/с - средняя за 10 мин, порывы в срок и между сроками (в фигурных скобках) и направление, откуда дует ветер: С - северный, СВ - северо-восточный, В - восточный, ЮВ - юго-восточный, Ю - южный, ЮЗ - юго-западный, З - западный, СЗ - северо-западный.
Видимость - горизонтальная дальность видимости в метрах или километрах. При видимости от 1 до 10 км при отсутствии осадков обычно наблюдается дымка, при ухудшении видимости до 1 км и менее - туман. В сухую погоду видимость может ухудшаться дымом, пылью или мглою.
Явления - указаны атмосферные явления, наблюдавшиеся в срок или в последний час перед сроком; фигурными скобками обозначены явления, наблюдавшиеся между сроками (за 1-3 часа до срока); квадратными скобками обозначены град или гололедные отложения с указанием их диаметра в мм.
Облачность - указаны через наклонную черту общая и нижняя облачность в баллах и высота нижней границы облаков в метрах; квадратными скобками обозначены формы облаков: Ci - перистые, Cs - перисто-слоистые, Cc - перисто-кучевые, Ac - высококучевые, As - высокослоистые, Sc - слоисто-кучевые, Ns - слоисто-дождевые, Cu - кучевые, Cb - кучево-дождевые. Подробнее классификацию облаков см. в Атласе облаков (PDF).
T - Температура воздуха - температура, измеренная на высоте 2 м над землей.
Td - Температура точки росы - температура, при понижении до которой содержащийся в воздухе водяной пар достигнет насыщения.
f - Относительная влажность воздуха - влажноcть воздуха, измеренная на высоте 2 м над землей.
Te - Эффективная температура - температура, которую ощущает одетый по сезону человек в тени. Характеристика душности погоды. При расчете учитывается влияние влажности воздуха и скорости ветра на теплоощущения человека.
Tes - Эффективная температура на солнце - температура, которую ощущает человек, с поправкой на солнечный нагрев. Характеристика знойности погоды. Зависит от высоты солнца над горизонтом, облачности и скорости ветра. Ночью, в пасмурную погоду, а также при ветре 12 м/с и более поправка равна нулю.
P - Атмосферное давление - приведенное к уровню моря атмосферное давление.
Po - Атмосферное давление - измеренное на уровне метеостанции атмосферное давление.
Tmin - Минимальная температура - минимум температуры воздуха на высоте 2 м над землей.
Tmax - Максимальная температура - максимум температуры воздуха на высоте 2 м над землей.
R - Количество осадков - Количество выпавших осадков за период времени, мм. При наведении курсора мыши на число - период времени, за который выпало указанное количество осадков.
R24 - Количество осадков - Количество выпавших осадков за 24 часа, мм.
S - Снежный покров - Высота снежного покрова, см. При наведении курсора мыши на число - состояние снежного покрова и степень покрытия местности в баллах.